Cosmos 841 Rocket - Orbit

View from above orbital plane
View from above orbital plane
View from above satellite
View from above satellite

Ground track
Ground track

The orbit data is extracted from the following two-line orbital elements,

1 09023U 76069B   13142.80212821  .00000236  00000-0  85101-4 0  1157
2 09023 074.0441 318.8581 0017024 133.1521 227.1060 14.38930987930978
Epoch (UTC): 22 May 2013 19:15:03
Eccentricity: 0.0017024
inclination: 74.0441°
perigee height: 750 km
apogee height: 774 km
right ascension of ascending node: 318.8581°
argument of perigee: 133.1521°
revolutions per day: 14.38930987
mean anomaly at epoch: 227.1060°
orbit number at epoch: 93097

The dashed part of the orbit path shows where the satellite is in the earth's shadow,  

Developed and maintained by Chris Peat, Heavens-Above GmbH. Please read the updated FAQ before sending e-mail. Imprint. DLR